Monatsübersicht für Februar 2019
(Diese Seite wird jeweils zur 55. Minute einer Stunde aktualisiert)

 
Wetter
Zeitraffer
Tageslänge (hh:mm)
Höchsttemperatur in °C
Uhrzeit
Tiefsttemperatur in °C
Uhrzeit
Luftfeuchte (max., in %)
Uhrzeit
Luftfeuchte (min., in %)
Uhrzeit
Luftdruck (max., in hPa)
Uhrzeit
Luftdruck (min., in hPa)
Uhrzeit
Luftdruck (Ø, in hPa)
Regenrate (max, mm/h)
Uhrzeit
Niederschlag in mm
Verdunstung in mm
Solar in W/m² (Ø)
Solar in W/m² (max.)
UV-Index (max.)
Sonnenscheindauer (hh:mm)
Windrichtung (Ø)
Windstärke (Ø in km/h)
Windstärke (Ø in bft)
Windböe (max., in km/h)
Uhrzeit
Windböe (max., in bft)
Uhrzeit
Taupunkt (max., in °C)
Uhrzeit
Taupunkt (min., in °C)
Uhrzeit
Windchill (min., in °C)
Uhrzeit
Gewitterindex (max.)
Uhrzeit
01
09:09
1.1
15:35 Uhr
-3.6
06:55 Uhr

92
07:35 Uhr
80
14:50 Uhr
1000.7
00:00 Uhr

995.7
19:35 Uhr
997.5
0,000
00:00 Uhr
0,000
0.355
63
145
11:50 Uhr
0.0
00:00 Uhr

00:00:00
8,1
2
25,7
12:10 Uhr

4
-1.6
23:15 Uhr
-4.9
07:20 Uhr
-9.1
09:15 Uhr
0
00:00 Uhr
02
09:13
1.0
13:20 Uhr
0.0
04:45 Uhr

95
12:40 Uhr
85
00:20 Uhr
1004.9
23:40 Uhr

994.2
06:25 Uhr
997.5
2,400
10:05 Uhr
2,400
0.051
22
60
11:20 Uhr
0.0
00:00 Uhr

00:00:00
4,4
1
19,3
02:05 Uhr

3
0.1
12:40 Uhr
-1.7
00:20 Uhr
-3.7
21:55 Uhr
0
00:00 Uhr
03
09:16
1.6
12:30 Uhr
-0.2
23:45 Uhr

96
08:45 Uhr
92
21:35 Uhr
1022.1
23:50 Uhr

1005.0
00:05 Uhr
1013.3
2,400
00:20 Uhr
0,400
0.102
29
58
12:40 Uhr
0.0
00:00 Uhr

00:00:00
5,5
1
24,1
00:20 Uhr

4
1.0
12:30 Uhr
-1.4
23:50 Uhr
-4.4
00:45 Uhr
0
00:00 Uhr
04
09:19
5.6
14:15 Uhr
-1.7
03:35 Uhr

95
07:55 Uhr
64
14:05 Uhr
1028.2
09:40 Uhr

1022.2
00:00 Uhr
1026.6
0,000
00:00 Uhr
0,000
0.660
174
345
12:45 Uhr
0.6
11:45 Uhr

05:15:00
4,7
1
22,5
13:15 Uhr

4
1.1
11:50 Uhr
-2.7
03:00 Uhr
-1.7
03:35 Uhr
0
00:00 Uhr
05
09:23
4.3
12:55 Uhr
-0.1
00:50 Uhr

85
06:00 Uhr
76
04:25 Uhr
1027.7
22:35 Uhr

1024.2
06:30 Uhr
1025.8
2,400
10:10 Uhr
0,200
0.584
69
438
12:25 Uhr
0.7
12:20 Uhr

00:45:00
5,8
1
25,7
13:00 Uhr

4
1.1
17:20 Uhr
-3.1
03:05 Uhr
-1.5
02:40 Uhr
0
00:00 Uhr
06
09:26
6.4
13:55 Uhr
0.3
07:55 Uhr

88
08:05 Uhr
66
15:25 Uhr
1028.3
02:25 Uhr

1019.6
23:45 Uhr
1024.7
0,000
00:00 Uhr
0,000
0.965
156
359
11:50 Uhr
0.8
12:25 Uhr

06:10:00
4,9
1
27,4
13:15 Uhr

4
0.8
13:35 Uhr
-1.8
07:20 Uhr
0.1
10:50 Uhr
0
00:00 Uhr
07
09:30
5.2
12:55 Uhr
-0.9
05:50 Uhr

83
05:40 Uhr
54
12:55 Uhr
1019.8
00:00 Uhr

1009.3
14:25 Uhr
1013.1
2,400
15:50 Uhr
0,200
0.838
114
370
12:55 Uhr
0.8
11:50 Uhr

01:40:00
5,0
1
29,0
12:55 Uhr

4
0.5
22:25 Uhr
-3.8
07:30 Uhr
-2.8
07:35 Uhr
0
00:00 Uhr
08
09:34
8.4
11:50 Uhr
1.5
05:50 Uhr

88
05:50 Uhr
67
11:50 Uhr
1015.2
09:10 Uhr

1008.6
23:40 Uhr
1013.1
0,000
00:00 Uhr
0,000
0.914
134
380
11:50 Uhr
0.6
11:20 Uhr

02:30:00
6,3
1
37,0
12:40 Uhr

5
3.1
15:15 Uhr
-0.3
05:45 Uhr
1.5
02:55 Uhr
0
00:00 Uhr
09
09:38
10.9
14:25 Uhr
4.7
03:40 Uhr

87
09:30 Uhr
55
14:25 Uhr
1008.5
00:00 Uhr

1002.2
07:15 Uhr
1004.5
2,400
07:40 Uhr
1,400
1.473
134
437
11:20 Uhr
0.6
11:15 Uhr

03:05:00
10,8
2
46,7
13:40 Uhr

6
4.7
11:15 Uhr
-0.3
05:55 Uhr
0.5
01:20 Uhr
0
00:00 Uhr
10
09:42
8.5
20:00 Uhr
4.6
07:00 Uhr

91
11:40 Uhr
70
00:30 Uhr
1007.8
01:20 Uhr

989.2
18:55 Uhr
998.0
4,800
10:40 Uhr
8,400
0.508
35
73
10:10 Uhr
0.0
00:00 Uhr

00:00:00
8,0
2
30,6
23:10 Uhr

5
6.0
20:20 Uhr
1.5
06:35 Uhr
-0.8
11:50 Uhr
0
00:00 Uhr
11
09:46
7.2
14:30 Uhr
1.4
04:45 Uhr

93
05:30 Uhr
58
16:10 Uhr
1019.4
23:50 Uhr

990.2
00:05 Uhr
1005.2
2,400
03:25 Uhr
2,000
1.118
89
286
13:35 Uhr
0.6
13:35 Uhr

01:30:00
14,1
3
45,1
13:00 Uhr

6
4.7
00:00 Uhr
-2.7
19:55 Uhr
-7.1
04:05 Uhr
0
00:00 Uhr
12
09:49
7.6
13:20 Uhr
0.1
20:00 Uhr

83
07:10 Uhr
53
13:20 Uhr
1031.5
23:25 Uhr

1019.5
00:00 Uhr
1026.4
0,000
00:00 Uhr
0,000
1.295
165
497
12:10 Uhr
0.8
11:40 Uhr

03:55:00
8,9
2
37,0
04:45 Uhr

5
0.2
10:40 Uhr
-3.7
20:05 Uhr
-6.5
01:05 Uhr
0
00:00 Uhr
13
09:53
8.0
14:20 Uhr
2.3
00:00 Uhr

93
21:30 Uhr
82
00:00 Uhr
1033.6
22:00 Uhr

1029.2
06:10 Uhr
1031.2
2,400
01:00 Uhr
0,400
0.432
41
92
12:15 Uhr
0.1
13:00 Uhr

00:00:00
9,4
2
32,2
10:55 Uhr

5
5.9
17:40 Uhr
-0.4
00:00 Uhr
-0.7
05:55 Uhr
0
00:00 Uhr
14
09:56
11.9
14:05 Uhr
-0.2
22:55 Uhr

92
01:00 Uhr
61
14:05 Uhr
1036.0
10:40 Uhr

1033.6
00:00 Uhr
1034.7
0,000
00:00 Uhr
0,000
0.838
153
446
12:45 Uhr
0.9
12:45 Uhr

03:45:00
4,3
1
20,9
02:25 Uhr

4
5.6
00:00 Uhr
-1.8
22:55 Uhr
-0.2
22:55 Uhr
0
00:00 Uhr
15
10:00
14.8
13:35 Uhr
-3.5
07:45 Uhr

93
01:00 Uhr
33
15:10 Uhr
1035.2
09:05 Uhr

1030.6
23:05 Uhr
1033.5
0,000
00:00 Uhr
0,000
1.372
224
404
12:15 Uhr
1.0
11:45 Uhr

08:05:00
1,0
0
12,9
13:30 Uhr

2
2.4
10:35 Uhr
-4.8
07:45 Uhr
-3.5
07:45 Uhr
0
00:00 Uhr


 
Wetter
Zeitraffer
Tageslänge (hh:mm)
Höchsttemperatur in °C
Uhrzeit
Tiefsttemperatur in °C
Uhrzeit
Luftfeuchte (max., in %)
Uhrzeit
Luftfeuchte (min., in %)
Uhrzeit
Luftdruck (max., in hPa)
Uhrzeit
Luftdruck (min., in hPa)
Uhrzeit
Luftdruck (Ø, in hPa)
Regenrate (max, mm/h)
Uhrzeit
Niederschlag in mm
Verdunstung in mm
Solar in W/m² (Ø)
Solar in W/m² (max.)
UV-Index (max.)
Sonnenscheindauer (hh:mm)
Windrichtung (Ø)
Windstärke (Ø in km/h)
Windstärke (Ø in bft)
Windböe (max., in km/h)
Uhrzeit
Windböe (max., in bft)
Uhrzeit
Taupunkt (max., in °C)
Uhrzeit
Taupunkt (min., in °C)
Uhrzeit
Windchill (min., in °C)
Uhrzeit
Gewitterindex (max.)
Uhrzeit
16
10:04
16.7
14:45 Uhr
-0.2
07:20 Uhr

86
06:25 Uhr
30
15:45 Uhr
1030.4
00:00 Uhr

1024.2
17:15 Uhr
1026.4
0,000
00:00 Uhr
0,000
1.753
233
404
12:20 Uhr
1.2
12:05 Uhr

07:45:00
2,9
1
24,1
13:20 Uhr

4
1.2
10:35 Uhr
-2.3
07:15 Uhr
-0.2
07:20 Uhr
0
00:00 Uhr
17
10:08
12.9
12:45 Uhr
-1.7
06:15 Uhr

89
05:15 Uhr
51
12:45 Uhr
1026.3
09:25 Uhr

1022.3
23:20 Uhr
1024.5
0,000
00:00 Uhr
0,000
1.194
205
388
12:55 Uhr
1.1
12:50 Uhr

07:25:00
1,5
0
11,3
15:05 Uhr

2
3.5
14:30 Uhr
-3.4
06:10 Uhr
-1.7
06:15 Uhr
0
00:00 Uhr
18
10:12
16.2
14:50 Uhr
-0.3
07:40 Uhr

89
07:10 Uhr
38
14:15 Uhr
1022.1
00:00 Uhr

1015.4
23:20 Uhr
1019.3
0,000
00:00 Uhr
0,000
1.473
228
403
12:20 Uhr
1.0
12:15 Uhr

07:45:00
1,6
0
11,3
11:55 Uhr

2
3.1
12:00 Uhr
-1.9
07:35 Uhr
-0.3
07:40 Uhr
0
00:00 Uhr
19
10:16
9.6
14:10 Uhr
1.5
03:20 Uhr

88
23:15 Uhr
63
16:30 Uhr
1016.8
23:10 Uhr

1013.1
05:45 Uhr
1014.8
4,800
20:30 Uhr
0,800
1.041
94
214
13:10 Uhr
0.6
12:05 Uhr

00:10:00
6,9
1
43,5
20:30 Uhr

6
4.4
13:15 Uhr
-1.6
03:20 Uhr
-1.3
20:30 Uhr
0
00:00 Uhr
20
10:21
11.0
13:40 Uhr
5.0
04:05 Uhr

86
00:00 Uhr
65
12:50 Uhr
1023.6
21:45 Uhr

1016.9
00:00 Uhr
1020.5
0,000
00:00 Uhr
0,000
1.397
166
485
12:45 Uhr
1.0
12:35 Uhr

03:45:00
6,8
1
27,4
10:45 Uhr

4
4.7
13:40 Uhr
2.1
23:15 Uhr
1.7
06:20 Uhr
0
00:00 Uhr
21
10:25
11.3
13:30 Uhr
5.6
06:55 Uhr

93
22:50 Uhr
68
13:30 Uhr
1024.0
23:20 Uhr

1022.1
12:40 Uhr
1023.1
2,400
06:25 Uhr
4,000
0.864
114
469
11:45 Uhr
1.0
12:45 Uhr

01:50:00
6,6
1
29,0
11:50 Uhr

4
7.3
22:50 Uhr
1.8
00:05 Uhr
3.5
11:05 Uhr
0
00:00 Uhr